This is the latest recevied weather packets stored in our database for station/object N1TKS. If no packets are shown the sender has not sent any weather packets the latest 10 day(s).
| Time | Temp. | Humidity | Pressure | Rain* | Wind** | Luminosity | Snow |
|---|---|---|---|---|---|---|---|
| 1778206914 | 10.56° C | 65% | 1009.8 hPa | 0 mm | - | - | - |
| 1778206613 | 11.11° C | 64% | 1009.8 hPa | 0 mm | - | - | - |
| 1778206313 | 11.11° C | 63% | 1009.8 hPa | 0 mm | - | - | - |
| 1778206014 | 11.11° C | 62% | 1009.7 hPa | 0 mm | - | - | - |
| 1778205714 | 11.11° C | 62% | 1009.6 hPa | 0 mm | - | - | - |
| 1778205413 | 11.67° C | 61% | 1009.7 hPa | 0 mm | - | - | - |
| 1778205114 | 11.67° C | 60% | 1009.7 hPa | 0 mm | - | - | - |
| 1778204813 | 12.22° C | 58% | 1009.7 hPa | 0 mm | - | - | - |
| 1778204593 | 12.22° C | 56% | 1009.7 hPa | 0 mm | - | - | - |
| 1778204514 | 12.22° C | 56% | 1009.7 hPa | 0 mm | - | - | - |
| 1778204213 | 12.22° C | 55% | 1009.7 hPa | 0 mm | - | - | - |
| 1778203914 | 12.22° C | 55% | 1009.6 hPa | 0 mm | - | - | - |
| 1778203318 | 12.78° C | 54% | 1009.6 hPa | 0 mm | - | - | - |
| 1778203013 | 12.78° C | 54% | 1009.5 hPa | 0 mm | - | - | - |
| 1778202413 | 13.33° C | 52% | 1009.5 hPa | 0 mm | - | - | - |
| 1778202114 | 13.33° C | 52% | 1009.5 hPa | 0 mm | - | - | - |
| 1778201813 | 13.33° C | 49% | 1009.3 hPa | 0 mm | - | - | - |
| 1778200613 | 14.44° C | 46% | 1009 hPa | 0 mm | - | - | - |
| 1778200348 | 14.44° C | 45% | 1008.9 hPa | 0 mm | - | - | - |
| 1778200313 | 14.44° C | 45% | 1008.9 hPa | 0 mm | - | - | - |
| 1778199499 | 15° C | 44% | 1008.7 hPa | 0 mm | - | - | - |
| 1778199413 | 15° C | 44% | 1008.7 hPa | 0 mm | - | - | - |
| 1778199113 | 15° C | 43% | 1008.6 hPa | 0 mm | - | - | - |
| 1778198513 | 15.56° C | 41% | 1008.7 hPa | 0 mm | - | - | - |
| 1778198214 | 15.56° C | 40% | 1008.7 hPa | 0 mm | - | - | - |
* Rain latest hour (hover to see other rain measurements)
** Current wind speed in m/s (hover to see current wind gust speed)